STARLINK-11371, 62879

Orbit data source: Space-Track

STARLINK-11371, 62879 is a payload satellite owned by SpaceX/Seattle (US) in LEO that was launched on Tue, 04 Feb 2025 UTC via an FALCON 9 launch vehicle from the Air Force Eastern Test Range (AFETR). Payload-class satellites include a variety of spacecraft equipped with specific instruments for various scientific and technological missions. These include communications satellites like Starlink; space stations such as the ISS; scientific satellites like the Hubble; Earth observation satellites from companies like Planet Labs, Umbra, and HawkEye 360; GPS; miniature CubeSats for education and research; and military/defense satellites.

Loading next visibility...
Identifier
62879, 2025-024A
Orbit
LEO
Country
Flag of USUS
Related business
Manufacturer
SpaceX/Seattle
Mission
Operational Commercial Communications
Bus & Motor
STARLINK V2MD, Unknown motor
Mass
960 kg wet, ~910 kg dry
Launch date (UTC)
2025-02-04 (10 months ago)
Launch vehicle
FALCON 9
Launch site
Air Force Eastern Test Range (AFETR)
Object type
Payload
Rocket body
Debris
Shape & HBR
Box + 2 Pan, 18.1 m
Radar Cross Section
36.964 m², Large (>1 m²)

Expand to show TLE details & history
Last TLE update: 1 day ago

TLE from 1 day ago
0 STARLINK-11371
1 62879U 25024A   25348.42679170  .00239347  00000-0  18110-2 0  9994
2 62879  42.9989 335.6925 0001133 223.5818 136.4960 15.70900657 50054
Epoch: 2025-12-14T10:14Z
TLE epoch observation values (Epoch: 2025-12-14T10:14:34.802Z)
Latitude
-0.00005°
Longitude
98.70756°
Altitude
356.646 km
Speed
7.697 km/s
True Right ascension
22h 22m 46s
True Declination
0° 00' 00"
Sunlit
Object was in daylight at epoch
Visualization orbit readout
Latitude
Unknown
Longitude
Unknown
Altitude
Unknown
Speed
Unknown
Apparent Right ascension
Unknown
Apparent Declination
Unknown
Sunlit
N/A
Visualization observer readout
Local Sidereal Time
14:35:55
Azimuth
Unknown
Elevation
Unknown
Doppler factor
Unknown
Orbital elements
Apogee altitude
359.067 km
Perigee altitude
357.54 km
Semi-major axis
6,736.441 km
Eccentricity
0.00011
Inclination
42.9989°
RAAN
335.6925°
Arg. of periapsis
223.5818°
True anomaly
136.50494°
Mean anomaly
136.496°
Eccentric anomaly
136.50047°
Mean motion
3.92552 °/min
Orbital period
91.71 mins
BSTAR
0.001811
Loading maneuver chart data...
Computing Atmospheric mass density...
Loading historical data...
Loading historical data...
Loading historical data...
Loading historical data...
Loading historical data...
Loading historical data...
Loading historical data...

Documentation

Showing up to 5 results
|